CW2220 Weather Reports


Display with metric or nautical units.
time (UTC)temp
F
wind
direction
speed
MPH
gust
MPH
rain 1hr
in
rain 24hr
in
rain mn
in
humidity
%
barometer
mb
20260507130042 61 352 6.0 13.0 0.00 0.05 0.05 97 1014.9
20260507124546 61 5 5.0 10.0 0.00 0.05 0.05 98 1014.5
20260507123032 61 5 6.0 14.0 0.00 0.05 0.05 97 1014.3
20260507121536 61 10 4.0 15.0 0.00 0.05 0.05 98 1014.3
20260507120035 61 355 10.0 16.0 0.00 0.05 0.05 97 1013.8
20260507114532 61 10 6.0 14.0 0.00 0.05 0.05 98 1013.8
20260507113031 62 22 7.0 15.0 0.00 0.05 0.05 97 1013.6
20260507111530 62 17 4.0 14.0 0.00 0.05 0.05 98 1013.4
20260507110043 62 40 5.0 13.0 0.00 0.05 0.05 98 1013.0
20260507104537 62 5 7.0 13.0 0.00 0.05 0.05 97 1013.0
20260507103040 63 5 8.0 15.0 0.00 0.05 0.05 97 1012.7
20260507101537 64 22 9.0 16.0 0.01 0.05 0.05 97 1012.4
20260507100042 64 13 6.0 12.0 0.01 0.05 0.05 97 1012.4
20260507094535 65 347 7.0 14.0 0.01 0.05 0.05 97 1012.1
20260507093040 66 317 7.0 14.0 0.02 0.05 0.05 97 1011.8
20260507091540 66 330 4.0 11.0 0.02 0.04 0.04 97 1011.6
20260507090031 66 319 4.0 10.0 0.02 0.04 0.04 97 1011.6
20260507084537 67 351 4.0 10.0 0.03 0.04 0.04 96 1011.6
20260507083035 68 317 3.0 10.0 0.03 0.03 0.03 96 1011.4
20260507081535 71 322 6.0 17.0 0.02 0.02 0.02 95 1011.4
20260507080037 77 0 0.0 3.0 0.02 0.02 0.02 97 1011.0
20260507074532 77 260 1.0 4.0 0.01 0.01 0.01 97 1011.1
20260507073043 77 317 1.0 4.0 0.00 0.00 0.00 97 1011.1
20260507071537 77 233 1.0 5.0 0.00 0.00 0.00 96 1011.1
20260507070037 77 254 2.0 6.0 0.00 0.00 0.00 96 1011.4
20260507064535 77 199 1.0 4.0 0.00 0.00 0.00 96 1011.5
20260507063051 77 264 1.0 7.0 0.00 0.00 0.00 96 1011.5
20260507061546 77 257 2.0 6.0 0.00 0.00 0.00 96 1011.6
20260507060044 77 219 3.0 8.0 0.00 0.00 0.00 96 1011.6
20260507054542 77 237 0.0 4.0 0.00 0.00 0.00 96 1011.5
20260507053035 77 0 2.0 5.0 0.00 0.00 0.00 96 1011.5
20260507051535 77 178 1.0 8.0 0.00 0.00 0.00 96 1011.4
20260507050042 77 187 3.0 9.0 0.00 0.00 0.00 96 1011.1
20260507044533 77 219 4.0 9.0 0.00 0.00 0.00 96 1011.1
20260507043038 77 213 4.0 7.0 0.00 0.00 0.00 96 1010.9
20260507041536 77 198 4.0 9.0 0.00 0.00 0.00 95 1011.1
20260507040035 77 182 4.0 9.0 0.00 0.00 0.00 95 1011.2
20260507034538 78 192 3.0 9.0 0.00 0.00 0.00 95 1011.2
20260507033039 78 193 3.0 8.0 0.00 0.00 0.00 95 1011.2
20260507031536 78 196 3.0 11.0 0.00 0.00 0.00 95 1011.0
20260507030036 78 0 5.0 10.0 0.00 0.00 0.00 95 1010.7
20260507024537 78 188 4.0 9.0 0.00 0.00 0.00 94 1010.6
20260507023034 78 166 3.0 13.0 0.00 0.00 0.00 94 1010.3
20260507021538 78 149 6.0 13.0 0.00 0.00 0.00 94 1010.2
20260507020042 78 182 5.0 12.0 0.00 0.00 0.00 93 1010.1
20260507014534 79 204 5.0 13.0 0.00 0.00 0.00 93 1010.0
20260507013046 79 196 5.0 14.0 0.00 0.00 0.00 93 1009.8
20260507011538 79 195 6.0 11.0 0.00 0.00 0.00 92 1009.5
20260507010051 79 131 6.0 12.0 0.00 0.00 0.00 92 1009.6
20260507004535 79 177 5.0 10.0 0.00 0.00 0.00 92 1009.6
20260507003035 79 172 6.0 12.0 0.00 0.00 0.00 92 1009.5
20260507001539 80 143 6.0 13.0 0.00 0.00 0.00 92 1009.4
20260507000038 80 198 5.0 12.0 0.00 0.00 0.00 91 1009.2
20260506234537 80 194 4.0 12.0 0.00 0.00 0.00 90 1009.2
20260506233053 81 179 5.0 14.0 0.00 0.00 0.00 90 1009.5
20260506231536 81 175 6.0 18.0 0.00 0.00 0.00 90 1009.3
20260506230042 81 141 7.0 15.0 0.00 0.00 0.00 89 1009.4
20260506224537 81 182 5.0 16.0 0.00 0.00 0.00 90 1009.3
20260506223035 81 195 2.0 10.0 0.00 0.00 0.00 91 1009.5
20260506221535 81 161 3.0 10.0 0.00 0.00 0.00 91 1009.4
20260506220104 81 183 3.0 11.0 0.00 0.00 0.00 90 1009.4
20260506220033 81 183 3.0 11.0 0.00 0.00 0.00 90 1009.4
20260506214539 81 196 5.0 9.0 0.00 0.00 0.00 90 1009.5
20260506213038 81 173 3.0 10.0 0.00 0.00 0.00 90 1009.6
20260506211536 81 178 6.0 11.0 0.00 0.00 0.00 89 1009.8
20260506210038 81 190 5.0 14.0 0.00 0.00 0.00 89 1009.7
20260506204536 82 183 4.0 10.0 0.00 0.00 0.00 88 1009.7
20260506203033 81 192 4.0 11.0 0.00 0.00 0.00 88 1009.8
20260506201537 82 192 5.0 12.0 0.00 0.00 0.00 87 1010.0
20260506200041 82 221 5.0 13.0 0.00 0.00 0.00 87 1010.0
20260506194544 82 186 4.0 10.0 0.00 0.00 0.00 87 1010.4
20260506193033 82 194 4.0 10.0 0.00 0.00 0.00 86 1010.8
20260506191540 83 110 4.0 11.0 0.00 0.00 0.00 85 1011.0
20260506190037 83 128 4.0 12.0 0.00 0.00 0.00 85 1011.1
20260506184535 84 87 5.0 10.0 0.00 0.00 0.00 83 1011.2
20260506183036 84 197 5.0 10.0 0.00 0.00 0.00 82 1011.3
20260506181536 84 182 7.0 16.0 0.00 0.00 0.00 83 1011.5
20260506180042 83 190 6.0 14.0 0.00 0.00 0.00 83 1011.7
20260506174536 83 215 6.0 12.0 0.00 0.00 0.00 83 1011.9
20260506173044 83 173 3.0 12.0 0.00 0.00 0.00 85 1012.0
20260506171535 83 173 6.0 12.0 0.00 0.00 0.00 82 1012.0
20260506170034 82 265 6.0 14.0 0.00 0.00 0.00 83 1012.0
20260506164551 82 166 6.0 14.0 0.00 0.00 0.00 84 1012.2
20260506163038 81 183 3.0 11.0 0.00 0.00 0.00 87 1012.2
20260506161535 80 192 4.0 10.0 0.00 0.00 0.00 88 1012.3
20260506160041 80 147 6.0 9.0 0.00 0.00 0.00 88 1012.2
20260506154543 79 215 4.0 12.0 0.00 0.00 0.00 90 1012.0
20260506153032 78 208 4.0 11.0 0.00 0.00 0.00 91 1011.9
20260506151535 78 183 5.0 9.0 0.00 0.00 0.00 91 1011.7
20260506150036 77 217 4.0 15.0 0.00 0.00 0.00 92 1011.9
20260506144534 78 172 8.0 13.0 0.00 0.00 0.00 91 1011.8
20260506143040 78 160 6.0 12.0 0.00 0.00 0.00 91 1011.8
20260506141544 78 175 4.0 11.0 0.00 0.00 0.00 92 1011.6
20260506140035 77 183 5.0 10.0 0.00 0.00 0.00 93 1011.5
20260506134536 77 174 6.0 12.0 0.00 0.00 0.00 94 1011.5
20260506133034 77 190 5.0 11.0 0.00 0.00 0.00 95 1011.5
20260506131536 76 212 5.0 10.0 0.00 0.00 0.00 96 1011.4